Weather History for Frenchville, ME

Change the Weather History Date:

Saturday, September 24, 2011

  Actual Average Record
Temperature  
Mean Temperature 63 °F 50 °F  
Max Temperature 71 °F 59 °F 73 °F (2004)
Min Temperature 55 °F 41 °F 30 °F (2014)
Degree Days  
Heating Degree Days 2    
Month to date heating degree days 221  
Since 1 July heating degree days 346  
Cooling Degree Days 0    
Month to date cooling degree days 2  
Year to date cooling degree days 84  
Growing Degree Days 13 (Base 50)    
Moisture  
Dew Point 58 °F    
Average Humidity 90    
Maximum Humidity 100    
Minimum Humidity 75    
Precipitation  
Precipitation 0.00 in 0.12 in 0.81 in (2006)
Month to date precipitation 3.23 2.90  
Year to date precipitation 34.40 24.96  
Sea Level Pressure  
Sea Level Pressure 30.07 in    
Wind  
Wind Speed 4 mph (ESE)    
Max Wind Speed 8 mph    
Max Gust Speed 14 mph    
Visibility 5 miles    
Events Fog    
T = Trace of Precipitation, MM = Missing Value Source: NWS Daily Summary

Daily Weather History Graph

Daily Weather History Graph

Search for Another Location

Airport:

Trip Planner

Search our weather history database for the weather conditions in past years. The results will help you decide how hot, cold, wet, or windy it might be!

Date:

Astronomy

Sep. 24, 2011 Rise Set
Actual Time 6:22 AM EDT 6:27 PM EDT
Civil Twilight 5:51 AM EDT 6:58 PM EDT
Nautical Twilight 5:15 AM EDT 7:33 PM EDT
Astronomical Twilight 4:38 AM EDT 8:10 PM EDT
Moon 2:41 AM EDT (9/24) 4:41 PM EDT (9/24)
Length of Visible Light 13h 06m
Length of Day
12h 05m
Waning Crescent, 11% of the Moon is Illuminated
Sep 24
Waning Crescent
Sep 27
New
Oct 3
First Quarter
Oct 11
Full
Oct 19
Last Quarter

Hourly Weather History & Observations

Time (EDT) Temp. Dew Point Humidity Pressure Visibility Wind Dir Wind Speed Gust Speed Precip Events Conditions
12:53 AM 60.1 °F 52.0 °F 75% 30.11 in 9.0 mi NE 3.5 mph - N/A   Clear
1:53 AM 57.9 °F 53.1 °F 84% 30.12 in 9.0 mi NNW 3.5 mph - N/A   Partly Cloudy
2:53 AM 55.9 °F 53.1 °F 90% 30.10 in 8.0 mi North 4.6 mph - N/A   Clear
3:53 AM 55.4 °F 53.6 °F 94% 30.10 in 8.0 mi North 3.5 mph - N/A   Clear
4:53 AM 57.0 °F 52.0 °F 83% 30.09 in 9.0 mi Variable 3.5 mph - N/A   Clear
5:53 AM 57.0 °F 51.1 °F 81% 30.09 in 9.0 mi East 4.6 mph - N/A   Scattered Clouds
6:53 AM 55.9 °F 51.1 °F 84% 30.10 in 8.0 mi East 4.6 mph - N/A   Clear
7:16 AM 55.4 °F 51.8 °F 88% 30.11 in 7.0 mi East 5.8 mph - N/A   Mostly Cloudy
7:32 AM 55.4 °F 51.8 °F 88% 30.11 in 7.0 mi East 5.8 mph - N/A   Overcast
7:53 AM 55.9 °F 52.0 °F 87% 30.10 in 7.0 mi East 5.8 mph - N/A   Overcast
8:46 AM 55.4 °F 53.6 °F 94% 30.10 in 6.0 mi East 5.8 mph - N/A   Overcast
8:53 AM 55.9 °F 54.0 °F 93% 30.11 in 5.0 mi East 5.8 mph - N/A   Overcast
9:26 AM 55.4 °F 55.4 °F 100% 30.11 in 1.8 mi East 3.5 mph - N/A   Overcast
9:28 AM 55.4 °F 55.4 °F 100% 30.11 in 1.0 mi Calm Calm - N/A   Overcast
9:35 AM 55.4 °F 55.4 °F 100% 30.11 in 0.2 mi East 3.5 mph - N/A Fog Fog
9:53 AM 55.9 °F 55.9 °F 100% 30.10 in 0.2 mi NE 3.5 mph - N/A Fog Fog
10:32 AM 57.2 °F 57.2 °F 100% 30.10 in 1.5 mi Calm Calm - N/A   Overcast
10:34 AM 57.2 °F 57.2 °F 100% 30.10 in 2.5 mi Calm Calm - N/A   Overcast
10:53 AM 59.0 °F 57.2 °F 94% 30.10 in 3.0 mi Calm Calm - N/A   Overcast
11:53 AM 63.0 °F 60.1 °F 90% 30.09 in 5.0 mi Calm Calm - N/A   Overcast
12:53 PM 66.2 °F 62.6 °F 88% 30.07 in 6.0 mi Variable 3.5 mph - N/A   Overcast
1:50 PM 66.2 °F 62.6 °F 88% 30.07 in 6.0 mi Calm Calm - N/A   Overcast
1:53 PM 66.2 °F 62.6 °F 88% 30.06 in 6.0 mi West 3.5 mph - N/A   Haze
2:46 PM 69.8 °F 62.6 °F 78% 30.05 in 7.0 mi Variable 4.6 mph - N/A   Scattered Clouds
2:53 PM 71.1 °F 63.0 °F 75% 30.04 in 7.0 mi Variable 5.8 mph - N/A   Scattered Clouds
3:53 PM 70.0 °F 62.1 °F 76% 30.03 in 7.0 mi SSE 5.8 mph - N/A   Scattered Clouds
4:53 PM 69.1 °F 62.1 °F 78% 30.01 in 7.0 mi SSE 4.6 mph - N/A   Clear
5:53 PM 69.1 °F 61.0 °F 75% 30.01 in 7.0 mi Calm Calm - N/A   Clear
6:53 PM 66.9 °F 61.0 °F 81% 30.01 in 8.0 mi SSW 3.5 mph - N/A   Clear
7:53 PM 66.9 °F 61.0 °F 81% 30.03 in 6.0 mi WSW 3.5 mph - N/A   Haze
8:12 PM 64.4 °F 62.6 °F 94% 30.04 in 5.0 mi Calm Calm - N/A   Mostly Cloudy
8:49 PM 64.4 °F 60.8 °F 88% 30.05 in 6.0 mi Calm Calm - N/A   Scattered Clouds
8:53 PM 64.0 °F 61.0 °F 90% 30.05 in 6.0 mi Calm Calm - N/A   Scattered Clouds
9:02 PM 64.4 °F 62.6 °F 94% 30.05 in 6.0 mi Calm Calm - N/A   Mostly Cloudy
9:32 PM 64.4 °F 60.8 °F 88% 30.06 in 6.0 mi WSW 3.5 mph - N/A   Overcast
9:53 PM 63.0 °F 62.1 °F 97% 30.05 in 6.0 mi WSW 4.6 mph - N/A   Scattered Clouds
10:53 PM 61.0 °F 61.0 °F 100% 30.04 in 5.0 mi WSW 4.6 mph - N/A   Clear
11:04 PM 60.8 °F 60.8 °F 100% 30.04 in 1.8 mi West 3.5 mph - N/A   Clear
11:17 PM 60.8 °F 60.8 °F 100% 30.04 in 3.0 mi West 4.6 mph - N/A   Clear
11:44 PM 60.8 °F 60.8 °F 100% 30.04 in 1.2 mi Calm Calm - N/A   Partly Cloudy
11:51 PM 59.0 °F 59.0 °F 100% 30.04 in 0.2 mi Calm Calm - N/A Fog Fog
11:53 PM 59.0 °F 59.0 °F 100% 30.04 in 0.2 mi Calm Calm - N/A Fog Fog